Terminal Aerodrome Forecast
Issued by NWS

Home | Current Version | Previous Version | Text Only | Print | Product List | Glossary On
Versions: 1 2 3 4 5 6 7 8 9 10 11 12
000
FTUS45 KRIW 262300
TAFBPI
TAF
KBPI 262329Z 2700/2724 29013G21KT P6SM SKC
     FM270200 34008KT P6SM SKC
     FM270900 VRB05KT P6SM SKC
     FM272000 28008KT P6SM SCT200=

USA.gov is the U.S. government's official web portal to all federal, state and local government web resources and services.